Flag for Canada Weather past 2 weeks in Québec, Quebec, Canada

Now
75 °F

Partly sunny.


Feels Like: 77 °F
Forecast: N/A
Wind: 10 mph from Southwest

Location: Quebec Weather Station

Current Time: Jul 5, 2015 at 7:58:41 PM

Latest Report: Jul 5, 2015 at 7:00 PM


Visibility: 30 mi

Pressure: 30.01 "Hg

Humidity: 61%

Dew point: 61 °F

Location of QuébecLocation

Historic Weather in Québec — Graph

°F

Québec temperature yesterday

Maximum temperature yesterday: 75 °F (at 4:00 PM)
Minimum temperature yesterday: 52 °F (at 5:00 AM)
Average temperature yesterday: 64 °F

Past Weeks' High & Low Weather Summary

 TemperatureHumidityPressure
High77 °F (Jun 27, 5:00 PM)100% (Jun 23, 12:00 PM)30.19 "Hg (Jun 23, 12:00 PM)
Low45 °F (Jun 25, 5:00 AM)29% (Jun 27, 4:00 PM)29.51 "Hg (Jun 23, 7:00 PM)
Average62 °F74%29.88 "Hg
* Reported Jun 20 6:00 PM — Jul 5 6:00 PM, Québec, Weather by CustomWeather, © 2015

Note: Actual official high and low records may vary slightly from our data, if they occured in-between our weather recording intervals... More about our weather records

Advertising

Québec weather history for previous 24 hours

 ConditionsComfort  
Time TempWeatherWind HumidityBarometerVisibility
6:00 PM
Sun, Jul 5
75 °FPassing clouds.14 mph57%30.01 "Hg30 mi
5:00 PM77 °FScattered clouds.13 mph57%30.01 "Hg30 mi
4:00 PM77 °FBroken clouds.10 mph57%30.01 "Hg30 mi
3:00 PM77 °FPartly sunny.9 mph54%30.01 "Hg30 mi
2:00 PM73 °FPartly sunny.9 mph57%30.02 "Hg30 mi
1:00 PM73 °FPartly sunny.9 mph57%30.01 "Hg30 mi
12:00 PM72 °FPartly sunny.12 mph61%30.00 "Hg30 mi
11:00 AM72 °FPartly sunny.10 mph65%29.99 "Hg30 mi
10:00 AM70 °FBroken clouds.9 mph73%29.98 "Hg30 mi
9:00 AM68 °FBroken clouds.12 mph73%29.98 "Hg15 mi
8:00 AM64 °FPartly sunny.12 mph83%29.98 "Hg8 mi
7:00 AM63 °FFog.9 mph94%29.97 "Hg6 mi
6:00 AM63 °FFog.8 mph94%29.94 "Hg6 mi
5:00 AM63 °FPartly cloudy.6 mph94%29.93 "Hg8 mi
4:00 AM61 °FPartly cloudy.5 mph94%29.92 "Hg15 mi
3:00 AM61 °FPassing clouds.6 mph88%29.92 "Hg15 mi
2:00 AM63 °FPassing clouds.6 mph83%29.92 "Hg15 mi
1:00 AM63 °FPassing clouds.3 mph83%29.92 "Hg15 mi
12:00 AM64 °FPassing clouds.No wind78%29.92 "Hg15 mi
11:00 PM
Sat, Jul 4
64 °FPassing clouds.3 mph78%29.91 "Hg15 mi
10:00 PM66 °FPassing clouds.No wind78%29.90 "Hg15 mi
9:00 PM66 °FBroken clouds.2 mph73%29.89 "Hg30 mi
8:00 PM70 °FPartly sunny.2 mph64%29.89 "Hg30 mi
7:00 PM72 °FPartly sunny.3 mph61%29.89 "Hg30 mi
Weather by CustomWeather, © 2015

See weather overviewHow to use our weather pages